Thermal, CA

8:53 AM PDT on October 18, 2017 (GMT -0700)
Desert Resorts Regional

Weather History for KTRM - November, 2012

Change the Weather History Date:

Friday, November 30, 2012

  Actual Average Record
Temperature  
Mean Temperature 62 °F 55 °F  
Max Temperature 74 °F 73 °F 87 °F (1964)
Min Temperature 49 °F 38 °F 24 °F (2010)
Degree Days  
Heating Degree Days 3 10  
Month to date heating degree days 97 157  
Since 1 July heating degree days 97 167  
Cooling Degree Days 0 0  
Month to date cooling degree days 47 33  
Year to date cooling degree days 4276 3686  
Growing Degree Days 12 (Base 50)    
Moisture  
Dew Point 52 °F    
Average Humidity 69    
Maximum Humidity 89    
Minimum Humidity 49    
Precipitation  
Precipitation 0.00 in 0.01 in 0.79 in (2007)
Month to date precipitation T 0.23  
Year to date precipitation 2.40 2.85  
Since 1 July precipitation 2.04  
Snow  
Snow 0.00 in - - ()
Month to date snowfall 0.0  
Year to date snowfall 0.0  
Snow Depth 0.00 in    
Sea Level Pressure  
Sea Level Pressure 30.03 in    
Wind  
Wind Speed 1 mph (WNW)    
Max Wind Speed 7 mph    
Max Gust Speed 10 mph    
Visibility 10 miles    
Events      
T = Trace of Precipitation, MM = Missing Value Source: NWS Daily Summary

Daily Weather History Graph

Daily Weather History Graph

Search for Another Location

Airport or City:

Trip Planner

Search our weather history database for the weather conditions in past years. The results will help you decide how hot, cold, wet, or windy it might be!

Date:

Astronomy

Nov. 30, 2012 Rise Set
Actual Time 6:30 AM PST 4:36 PM PST
Civil Twilight 6:03 AM PST 5:03 PM PST
Nautical Twilight 5:32 AM PST 5:34 PM PST
Astronomical Twilight 5:02 AM PST 6:04 PM PST
Moon 6:34 PM PST (11/30) 8:06 AM PST (11/30)
Length of Visible Light 11h 00m
Length of Day
10h 05m
Waning Gibbous, 96% of the Moon is Illuminated
Nov 30
Waning Gibbous
Dec 6
Last Quarter
Dec 13
New
Dec 19
First Quarter
Dec 28
Full

Hourly Weather History & Observations

Time (PST) Temp. Dew Point Humidity Pressure Visibility Wind Dir Wind Speed Gust Speed Precip Events Conditions
12:52 AM 53.1 °F 46.9 °F 80% 30.05 in 10.0 mi Calm Calm - N/A   Clear
1:52 AM 51.1 °F 44.1 °F 77% 30.05 in 10.0 mi Calm Calm - N/A   Clear
2:52 AM 50.0 °F 44.1 °F 80% 30.04 in 10.0 mi Calm Calm - N/A   Clear
3:52 AM 50.0 °F 45.0 °F 83% 30.04 in 10.0 mi Calm Calm - N/A   Clear
4:52 AM 51.1 °F 46.9 °F 86% 30.05 in 10.0 mi Calm Calm - N/A   Clear
5:52 AM 52.0 °F 48.0 °F 86% 30.06 in 10.0 mi Calm Calm - N/A   Clear
6:52 AM 52.0 °F 48.0 °F 86% 30.07 in 10.0 mi Calm Calm - N/A   Clear
7:52 AM 60.1 °F 51.1 °F 72% 30.08 in 10.0 mi Calm Calm - N/A   Clear
8:52 AM 66.9 °F 55.9 °F 68% 30.08 in 10.0 mi Calm Calm - N/A   Clear
9:52 AM 71.1 °F 54.0 °F 55% 30.08 in 10.0 mi Calm Calm - N/A   Clear
10:52 AM 73.0 °F 54.0 °F 51% 30.06 in 9.0 mi SSE 3.5 mph - N/A   Clear
11:52 AM 73.9 °F 54.0 °F 50% 30.03 in 10.0 mi Variable 3.5 mph - N/A   Clear
12:52 PM 73.0 °F 55.0 °F 53% 30.01 in 10.0 mi Variable 3.5 mph - N/A   Clear
1:52 PM 73.9 °F 54.0 °F 50% 30.00 in 10.0 mi Calm Calm - N/A   Clear
2:52 PM 73.0 °F 54.0 °F 51% 29.99 in 10.0 mi Calm Calm - N/A   Clear
3:52 PM 72.0 °F 55.0 °F 55% 30.01 in 10.0 mi Calm Calm - N/A   Clear
4:52 PM 68.0 °F 55.0 °F 63% 30.02 in 10.0 mi WNW 4.6 mph - N/A   Clear
5:52 PM 64.9 °F 54.0 °F 68% 30.01 in 10.0 mi Calm Calm - N/A   Clear
6:52 PM 66.0 °F 55.0 °F 68% 29.99 in 10.0 mi ESE 3.5 mph - N/A   Clear
7:52 PM 63.0 °F 54.0 °F 72% 29.99 in 10.0 mi WSW 4.6 mph - N/A   Clear
8:52 PM 61.0 °F 53.1 °F 75% 30.01 in 10.0 mi Calm Calm - N/A   Clear
9:52 PM 59.0 °F 52.0 °F 78% 30.03 in 10.0 mi Calm Calm - N/A   Clear
10:52 PM 64.0 °F 54.0 °F 70% 30.03 in 10.0 mi NW 6.9 mph - N/A   Clear
11:52 PM 68.0 °F 53.1 °F 59% 30.01 in 10.0 mi NNW 12.7 mph - N/A   Clear